Regional Weather Roundup
Issued by NWS

Home | Current Version | Previous Version | Graphics & Text | Print | Product List | Glossary On
Versions: 1 2 3 4 5 6 7 8 9 10 11 12 13 14 15 16 17 18 19 20 21 22 23 24 25 26 27 28 29 30 31 32 33 34 35 36 37 38 39 40 41 42 43 44 45 46 47 48 49 50
000
ASUS43 KMPX 012101
RWRMN
WEATHER ROUNDUP FOR MINNESOTA
NATIONAL WEATHER SERVICE TWIN CITIES/CHANHASSEN MN
400 PM CDT WED JUL 01 2015


NOTE: "FAIR" INDICATES FEW OR NO CLOUDS BELOW 12,000 FEET WITH NO
SIGNIFICANT WEATHER AND/OR OBSTRUCTIONS TO VISIBILITY. N/A MEANS
CURRENT SKY AND/OR WEATHER CONDITIONS ARE NOT AVAILABLE.

MNZ060>063-068>070-012200-
   Twin Cities Metro

CITY           SKY/WX    TMP DP  RH WIND       PRES   REMARKS
TWIN CITIES    MOSUNNY   69  50  50 SE6       30.01S
ST PAUL        MOSUNNY   71  54  54 S6        30.00F
CRYSTAL        MOSUNNY   73  46  38 CALM      29.99F
BLAINE         SUNNY     73  52  46 E5        30.00S
LAKEVILLE      PTSUNNY   64  48  55 E7        30.02S
EDEN PRAIRIE   MOSUNNY   70  47  43 SE8       30.00S
SOUTH ST PAUL  MOSUNNY   70  53  54 SW3       30.00S
LAKE ELMO      FAIR      72  52  49 E6        30.01F
$$
MNZ001>005-007-008-013>017-022>024-027-028-012200-
   Northwest Minnesota

CITY           SKY/WX    TMP DP  RH WIND       PRES   REMARKS
BEMIDJI        PTSUNNY   75  59  58 SW3       29.96S
HALLOCK        SUNNY     81  54  39 S6        29.93S
ROSEAU         SUNNY     79  57  47 S6        29.95S
WARROAD        MOSUNNY   77  59  53 CALM      29.95S
THIEF RVR FALL PTSUNNY   79  57  47 SW7       29.95F
CROOKSTON      SUNNY     79  59  50 W6        29.95F
FOSSTON        MOSUNNY   77  59  53 W7        29.97S
DETROIT LAKES  MOSUNNY   73  55  53 SW7       30.00S
MOORHEAD       SUNNY     75  59  57 S8        29.98S
PARK RAPIDS    PTSUNNY   77  57  50 SW10      29.98R
MAHNOMEN       FAIR      76  60  57 W8        29.97S
$$
MNZ006-009>011-018-025>026-012200-
   North Central Minnesota

CITY           SKY/WX    TMP DP  RH WIND       PRES   REMARKS
BAUDETTE       SUNNY     78  51  38 E3        29.95S
FLAG ISLAND    SUNNY     72  59  64 SE8       29.93S
INTL FALLS     MOSUNNY   77  49  37 W3        29.96S
WASKISH        SUNNY     77  54  44 W6        29.95F
BIG FORK       SUNNY    N/A N/A N/A W5        29.97S
LONGVILLE      CLOUDY    73  57  56 S3        29.98S
GRAND RAPIDS   PTSUNNY   73  55  53 SW9       29.98F
CRANE LAKE     MOSUNNY   72  52  49 SW2       29.98F
ORR            SUNNY     75  48  38 CALM      29.95F
COOK           SUNNY     75  54  46 W3        29.98S
WALKER         LGT RAIN  71  64  79 CALM      29.96S
$$
MNZ012-019>021-037-012200-
   Northeast Minnesota

CITY           SKY/WX    TMP DP  RH WIND       PRES   REMARKS
DULUTH         MOSUNNY   70  54  56 S5        30.00S
ELY            PTSUNNY   72  50  46 S5        29.99S
HIBBING        PTSUNNY   74  54  49 CALM      29.98F
EVELETH        SUNNY     73  54  49 SW9       30.00S
DULUTH HARBOR  SUNNY     66  61  82 E6        30.00F
SILVER BAY     SUNNY     68  52  56 S8        30.00S
GRAND MARAIS     N/A     57  49  74 S3        30.02S
G MARAIS ARPRT MOSUNNY   63  43  48 S7        30.04S
$$
MNZ029>031-032-039>041-046>048-054>057-064-012200-
   West Central Minnesota

CITY           SKY/WX    TMP DP  RH WIND       PRES   REMARKS
FERGUS FALLS   SUNNY     73  55  53 SW9       29.98S
WHEATON        SUNNY     72  55  56 SE12      29.99S
MORRIS         SUNNY     73  52  46 SE9       29.98S
ALEXANDRIA     SUNNY     72  53  51 SE7       30.01F
ELBOW LAKE     FAIR      72  57  58 S7        29.99S
WADENA           N/A     75  54  46 SW8       29.99S
GLENWOOD       SUNNY     72  55  56 S6        30.01S
APPLETON       SUNNY     73  54  49 SE5       29.98S
BENSON         SUNNY     73  52  46 S9        29.99S
ORTONVILLE     SUNNY     73  54  49 SE10      29.97S
MADISON        SUNNY     72  57  60 SE7       29.98S
WILLMAR        FAIR      72  54  53 SE9       30.01S
$$
MNZ033>034-036-042>043-049>051-058-059-012200-
   Central Minnesota

CITY           SKY/WX    TMP DP  RH WIND       PRES   REMARKS
ST CLOUD       SUNNY     72  49  44 VRB6      30.00F
SAUK CENTRE    FAIR      71  53  51 S5        30.01S
PAYNESVILLE    SUNNY     68  49  51 E7        30.01S
AITKIN         MOSUNNY   75  57  53 SW3       29.98S
PINE RIVER       N/A     75  57  53 S10       30.01S
BRAINERD       MOSUNNY   75  51  43 CALM      29.99F
STAPLES        MOSUNNY   73  54  49 S3        29.99S
LONG PRAIRIE   FAIR      70  55  60 S5        30.01F
LITTLE FALLS   SUNNY     72  48  43 E5        30.00F
LITCHFIELD     SUNNY     72  52  49 SE6       30.01F
BUFFALO        SUNNY     70  47  43 SE5       30.02S
MAPLE LAKE     SUNNY     71  55  55 SE5       30.02S
$$
MNZ037-044-045-052-053-012200-
   East Central Minnesota

CITY           SKY/WX    TMP DP  RH WIND       PRES   REMARKS
PRINCETON      SUNNY     75  52  43 CALM      30.00F
MORA           SUNNY     72  52  49 CALM      30.01F
CAMBRIDGE      MOSUNNY   75  55  50 CALM      29.98F
RUSH CITY      SUNNY     73  53  49 CALM      30.00F
MOOSE LAKE     PTSUNNY   72  59  64 CALM      29.98F
HINCKLEY       FAIR      73  52  46 CALM      30.00S
CLOQUET        CLOUDY    72  54  53 CALM      30.00S
MCGREGOR       SUNNY     73  54  49 W7        30.00S
$$
MNZ071>073-080-081-089-090-097-098-012200-
   Southwest Minnesota

CITY           SKY/WX    TMP DP  RH WIND       PRES   REMARKS
MONTEVIDEO     MOSUNNY   70  54  56 S10       30.00R
GRANITE FALLS  MOSUNNY   71  53  53 E9        30.01S
CANBY          CLOUDY    70  59  67 SE5       29.99S
MARSHALL       SUNNY     73  50  43 SE10G21   29.97R
REDWOOD FALLS  PTSUNNY   70  55  59 E8        29.99S
OLIVIA         MOSUNNY   68  50  52 SE9       29.99S
PIPESTONE      PTSUNNY   73  55  53 SE10      29.97S
WINDOM         SUNNY     70  55  60 E13       29.99S
WORTHINGTON    CLOUDY    73  52  46 E12       29.97S
JACKSON        CLOUDY    72  55  56 E14       29.99R
TRACY          MOSUNNY   73  54  51 E10       29.99R
SLAYTON        CLOUDY    72  52  49 E12       29.99R
$$
MNZ065>067-074>077-082>085-091>093-012200-
   South Central Minnesota

CITY           SKY/WX    TMP DP  RH WIND       PRES   REMARKS
MANKATO        MOSUNNY   66  50  55 E10       30.00F
NEW ULM        MOSUNNY   66  52  59 SE7       30.00S
ST JAMES       SUNNY     66  57  72 E8        30.00F
FAIRMONT       CLOUDY    64  52  63 E8        29.99S
GLENCOE        MOSUNNY   71  54  54 E8        30.00S
FARIBAULT      PTSUNNY   66  50  55 E7        30.02R
OWATONNA       PTSUNNY   64  48  55 E6        30.01F
WASECA         PTSUNNY   64  52  63 E7        30.02F
ALBERT LEA     CLOUDY    64  54  68 NE7       30.01R
$$
MNZ078>079-086>088-094>096-012200-
   Southeast Minnesota

CITY           SKY/WX    TMP DP  RH WIND       PRES   REMARKS
ROCHESTER      CLOUDY    62  50  64 NE5       30.03R
RED WING       PTSUNNY   72  48  43 CALM      29.99S
STANTON        PTSUNNY   66  52  59 E5        30.00F
DODGE CENTER   CLOUDY    63  52  67 NE5       30.02S
WINONA         PTSUNNY   70  50  49 E3        29.99F
AUSTIN         CLOUDY    63  52  67 E5        30.00S
PRESTON        CLOUDY    59  51  72 CALM      30.02S
$$
ABBREVIATIONS USED IN REMARKS
   TC - TEMPERATURES IN CELSIUS
  WCI - WIND CHILL INDEX
   HX - HEAT INDEX
  VSB - VISIBILITY
$$



USA.gov is the U.S. government's official web portal to all federal, state and local government web resources and services.